Погода в Морозовске

Погода в Морозовске : погода сейчас, прогноз погоды и архив. Всё, что Вы хотите узнать о погоде в Морозовске!

Хотите узнать прогноз погоды в Морозовске? Тогда Вам сюда: Погода в Морозовске

Поиск расширенной информации на нашем сайте:

Другие новости

Новости СМИ2

Главная страница сайта

Новости сайта

03.07.2017

Напоминаем, что на нашем специализированном сайте Метеоцентр.Азия вы можете получить высокодетализированные автоматические прогнозы погоды по пунктам России, СНГ и мира в авиационном формате (включающие направление и скорость ветра, видимость, явления погоды, количество и форму облачности, нижнюю и верхнюю границу облачности).


Погода в Морозовске - сегодня

Время (UTC), дата Ветер
(°,м/с) 
Видим.   Явления Облачность Т
(°С)
Тd
(°С)
f(%) Тe
(°С)
Pmin
(гПа)
dP
(гПа)
Po
(мм)
O2
(г/м3)
Тmin Tmax R s Состояние
почвы
18 20.02.18 100 (В) 5{10}  20000 м    10/10 600 м 
[Sc]
-3.4 -6.2 81 -7  1034.3  767  314           
21 20.02.18 тихо ()   20000 м    ясно 
-14.7 -16.1 89 -15  1025.1  0.1  760  325           
00 21.02.18 тихо ()   2000 м  дымка  ясно 
-17.7 -19.9 83 -18  1025.9  0.6  760  329           
03 21.02.18 тихо ()   2000 м  дымка  8/0 средняя 
[Ac trans]
-16.2 -18.1 85 -16  1026  0.1  760  327  -18.5         
06 21.02.18 тихо ()   10 км  [диам. изморози 12 мм]  9/9 600 м 
[Sc]
-10.2 -11.5 90 -10  1026.4  0.8  761  320           
09 21.02.18 090 (В) 20000 м    9/9 600 м 
[Sc]
-3.6 -8.9 67 -3  1026  0.1  761  312           
12 21.02.18 030 (СВ) 20000 м    8/8 600 м 
[Sc]
-4.1 -9.5 66 -4  1025.4  -0.6  760  312           
15 21.02.18 040 (СВ) 20000 м    8/8 600 м 
[Sc]
-6.8 -10 78 -6  1025.6  -0.6  760  315    -3.5       
18 21.02.18 тихо ()   20000 м    ясно 
-11.9 -13 92 -12  1026  0.1  761  322           
21 21.02.18 тихо ()   10 км    ясно 
-14.4 -16.1 87 -14  1025.7  -0.4  760  325           
00 22.02.18 060 (СВ) 10 км  [диам. изморози 2 мм]  ясно 
-14.5 -16.2 87 -15  1025.3  -0.4  760  325           
03 22.02.18 100 (В) 20000 м    4/0 средняя 
[Ac trans]
-11.9 -13.3 89 -12  1024.5  -0.7  759  321  -17.8      неравномерный
сухой снег
100% 
06 22.02.18 060 (СВ) 20000 м  [диам. изморози 4 мм]  10/10 600 м 
[Sc]
-8.2 -10 87 -10  1024.1  0.1  759  316           
09 22.02.18 040 (СВ) 10 км  слаб. снег [диам. изморози 4 мм]  10/10 300 м 
[Ns]
-5.6 -8.6 79 -9  1024.1  759  313           
12 22.02.18 040 (СВ) 20000 м  слаб. снег  10/10 300 м 
[Ns]
-3.9 -7 79 -8  1023.6  -0.4  759  311           
15 22.02.18 040 (СВ) 4000 м  слаб. снег  10/10 300 м 
[Ns]
-4.5 -6.7 85 -8  1023.9  0.3  759  312    -3.8  0.3     
18 22.02.18 050 (СВ) 20000 м  слаб. ливневой снег  10/10 600 м кучево-дожд. 
[Cb calv]
-5.7 -7.9 84 -8  1024.5  0.5  760  313           
21 22.02.18 060 (СВ) 20000 м  слаб. снег{ливн. осадки}  10/10 300 м 
[Ns]
-7.4 -9.7 84 -12  1024.5  760  316           
00 23.02.18 060 (СВ) 20000 м  слаб. снег{ливн. осадки}  10/10 300 м 
[Ns]
-7.9 -10.2 83 -12  1024  -0.5  759  316           
03 23.02.18 060 (СВ) 4000 м  слаб. снег  10/10 300 м 
[Ns]
-8.3 -10.4 85 -13  1023.7  -0.3  759  316  -8.5    0.5  10  неравномерный
сухой снег
100% 
06 23.02.18 070 (В) 5-10{10}  4000 м  слаб. снег  10/10 300 м 
[Ns]
-8.2 -10.4 84 -13  1023.7  759  316           
09 23.02.18 070 (В) 5{11}  4000 м  слаб. снег  10/10 300 м 
[Ns]
-7.1 -9.8 81 -11  1023.4  -0.3  759  315           
12 23.02.18 050 (СВ) 7-11{12}  4000 м  слаб. снег  10/10 300 м 
[Ns]
-7.1 -9.8 81 -12  1023.4  -1.2  758  315           
15 23.02.18 050 (СВ) 4000 м  слаб. снег  10/10 300 м 
[Ns]
-7.7 -9.5 87 -13  1022.3  0.1  758  315    -6.5     
18 23.02.18 060 (СВ) 6-10{11}  4000 м  слаб. снег  10/10 300 м 
[Ns]
-8.8 -10.6 87 -14  1022.4  758  317           
Время (UTC), дата Ветер
(°,м/с) 
Видим.   Явления Облачность Т
(°С)
Тd
(°С)
f(%) Тe
(°С)
Pmin
(гПа)
dP
(гПа)
Po
(мм)
O2
(г/м3)
Тmin Tmax R s Состояние
почвы

Для получения пояснительной информации подведите курсор к названию столбца.

ПОГОДА в Морозовске - архив

Всё, что Вы хотите узнать о погоде в Морозовске - удобно и подробно!

Выберите нужную дату (начиная с 1 января 2015* года) и нажмите кнопку "Найти".
Будут отображены архивные сводки погоды по пункту Морозовск, начиная с указанной даты.


Отображать данные в формате CSV (для использования в таблицах Excel)


Внимание! Наш архив погоды предназначен исключительно для личного некоммерческого использования в познавательных целях. Если Вам необходимы официальные справки о состоянии погоды (для производственных, юридических, коммерческих и т.п. целей), обращайтесь в органы Росгидромета.

*Примечание: данная дата относится к архиву по метеостанциям СССР (Россия, СНГ, Балтия).
Архив по метеостанциям Зарубежной Европы и Азии (кроме Китая) хранится 10 дней, по другим регионам земного шара (Китай, Африка, Америка, Австралия, Океания) - 1 день.

Морозовск - район местоположения метеостанции


Название, широта, долгота, высота метеостанции:
Морозовск 48.3°ш. 41.9°д. 90 м над ур. моря [Российская Федерация]

Дополнительная информация

В oтличие oт бoльшинства пoгoдных сайтoв мы публикуем пoдрoбную метеoинфoрмацию в детальнoм прoфессиoнальнoм фoрмате.

Характеристики температуры и влажнoсти вoздуха измеряются на высoте 2 м в тени вдали oт зданий и деревьев.
Скoрoсть ветра измеряется на высoте 10 м (на урoвне рoста челoвека скoрoсть ветра ниже в 1.5-2 раза). Если метеoстанция нахoдится в гoрoде или в лесу, тo скoрoсть ветра занижена на 2-4 м/с пo сравнению с oткрытым местoм. Скoрoсть ветра над акватoриями крупных рек и oзёр, а также на вершинах хoлмoв на 2-5 м/с выше, чем в oбычных услoвиях.
Атмoсфернoе давление в разных тoчках местнoсти мoжет значительнo oтличаться oт давления на метеoстанции, в зависимoсти oт услoвий рельефа (при пoдъёме на 10 м давление пoнижается примернo на 1 мм рт.ст.).